Hourly Data Report for September 26, 2017

All times are specified in Local Standard Time (LST). Add 1 hour to adjust for Daylight Saving Time where and when it is observed.

CLYDE RIVER A
NUNAVUT

70°29'09.000" N
68°31'01.000" W
26.50 m
2400804
71090
YCY

Download Data

Hourly Data (September 2017)
Hourly Data Report for September 26, 2017
Temp Definition
°C
Dew Point Temp Definition
°C
Rel Hum Definition
%
Wind Dir Definition
10's deg

Wind Spd Definition
km/h
Visibility Definition
km
Stn Press Definition
kPa
Hmdx Definition


Wind Chill Definition


Weather Definition


TIME
00:00 Legend Double Dagger -2.0 -4.5 83 30 8 16.1 100.81   -5 LegendNANA
01:00 Legend Double Dagger -3.3 -5.5 85 31 13 16.1 100.82   -8 LegendNANA
02:00 Legend Double Dagger -4.0 -6.8 81 32 15 16.1 100.86   -9 LegendNANA
03:00 Legend Double Dagger -3.3 -6.3 80 31 15 16.1 100.93   -8 LegendNANA
04:00 Legend Double Dagger -3.1 -5.6 83 31 15 16.1 100.94   -8 LegendNANA
05:00 Legend Double Dagger -2.5 -5.8 78 31 18 16.1 100.94   -8 LegendNANA
06:00 Legend Double Dagger -2.1 -5.6 77 33 11 16.1 100.95   -6 LegendNANA
07:00 Legend Double Dagger -2.5 -5.7 79 31 18 16.1 100.95   -8 LegendNANA
08:00 Legend Double Dagger -3.1 -6.1 80 31 21 16.1 100.92   -9 LegendNANA
09:00 Legend Double Dagger -3.3 -6.4 79 31 18 16.1 100.91   -9 LegendNANA
10:00 Legend Double Dagger -2.4 -6.7 73 30 24 16.1 100.90   -9 LegendNANA
11:00 Legend Double Dagger -2.3 -6.1 75 30 21 16.1 100.92   -8 LegendNANA
12:00 Legend Double Dagger -2.1 -5.7 77 29 18 16.1 100.93   -8 LegendNANA
13:00 Legend Double Dagger -1.4 -5.5 74 29 18 16.1 100.92   -7 LegendNANA
14:00 Legend Double Dagger -1.5 -5.0 77 29 13 16.1 100.92   -6 LegendNANA
15:00 Legend Double Dagger -1.5 -5.0 77 29 13 16.1 100.95   -6 LegendNANA
16:00 Legend Double Dagger -1.4 -5.1 76 29 15 16.1 100.93   -6 LegendNANA
17:00 Legend Double Dagger -1.6 -5.0 78 29 17 16.1 100.92   -7 LegendNANA
18:00 Legend Double Dagger -1.7 -5.2 77 30 11 16.1 100.94   -6 LegendNANA
19:00 Legend Double Dagger -1.9 -5.2 78 28 13 16.1 100.92   -6 LegendNANA
20:00 Legend Double Dagger -3.1 -5.7 82 28 13 16.1 100.91   -8 LegendNANA
21:00 Legend Double Dagger -5.3 -7.6 84 29 15 16.1 100.88   -11 LegendNANA
22:00 Legend Double Dagger -6.0 -8.3 84 30 17 16.1 100.87   -12 LegendNANA
23:00 Legend Double Dagger -6.6 -8.9 84 30 17 16.1 100.85   -13 LegendNANA

Notes on Data Quality.

Legend

  • E = Estimated
  • M = Missing
  • NA = Not Available
  • ‡ = Partner data that is not subject to review by the National Climate Archives
Date modified: